QPF
0.00 0.00 0.00 0.00 0.00 0.00 0.00 0.00 0.00 0.00 0.00 0.00 0.00 0.00 0.00 0.00 0.00 0.00 0.00 0.00 0.01 0.01 0.00 0.00 0.01 0.01 0.00 0.00 0.00 0.00 0.00 0.01 0.01 0.02 0.02 0.02 0.02 0.01 0.01 0.00 0.00 0.00 0.00
0.00 0.00 0.00 0.00 0.00 0.00 0.00 0.00 0.00 0.00 0.00 0.00 0.00 0.00 0.00 0.00 0.00 0.01 0.01 0.01 0.01 0.01 0.00 0.00 0.01 0.00 0.00 0.00 0.00 0.00 0.00 0.01 0.03 0.04 0.03 0.03 0.03 0.02 0.02 0.01 0.00 0.00 0.00
0.00 0.00 0.00 0.00 0.00 0.00 0.00 0.00 0.00 0.00 0.00 0.00 0.00 0.00 0.00 0.00 0.00 0.01 0.01 0.01 0.01 0.01 0.00 0.00 0.00 0.00 0.00 0.00 0.00 0.00 0.01 0.02 0.04 0.07 0.07 0.04 0.04 0.04 0.02 0.02 0.00 0.00 0.00
0.00 0.00 0.00 0.00 0.00 0.00 0.00 0.00 0.00 0.00 0.00 0.00 0.00 0.00 0.00 0.00 0.01 0.01 0.01 0.01 0.01 0.01 0.00 0.00 0.00 0.00 0.00 0.00 0.00 0.00 0.01 0.02 0.05 0.09 0.10 0.12 0.08 0.06 0.03 0.02 0.01 0.00 0.00
0.00 0.00 0.00 0.00 0.00 0.00 0.00 0.00 0.00 0.00 0.00 0.00 0.00 0.00 0.00 0.00 0.01 0.01 0.01 0.01 0.01 0.00 0.00 0.00 0.00 0.00 0.00 0.00 0.00 0.00 0.01 0.02 0.06 0.12 0.23 0.24 0.14 0.08 0.04 0.02 0.01 0.00 0.00
0.00 0.00 0.00 0.00 0.00 0.00 0.00 0.00 0.00 0.00 0.00 0.00 0.00 0.00 0.00 0.00 0.01 0.01 0.01 0.01 0.00 0.00 0.00 0.00 0.00 0.00 0.00 0.00 0.00 0.00 0.01 0.02 0.06 0.14 0.24 0.27 0.15 0.09 0.04 0.02 0.01 0.00 0.00
0.00 0.00 0.00 0.00 0.00 0.00 0.00 0.00 0.00 0.00 0.00 0.00 0.00 0.00 0.00 0.00 0.00 0.01 0.01 0.01 0.00 0.00 0.00 0.00 0.00 0.00 0.00 0.00 0.00 0.00 0.01 0.02 0.05 0.13 0.21 0.28 0.15 0.07 0.03 0.01 0.01 0.00 0.00
0.00 0.00 0.00 0.00 0.00 0.00 0.00 0.00 0.00 0.00 0.00 0.00 0.00 0.00 0.00 0.00 0.00 0.00 0.00 0.00 0.00 0.00 0.00 0.00 0.00 0.00 0.00 0.00 0.00 0.00 0.01 0.03 0.07 0.13 0.22 0.17 0.07 0.04 0.02 0.01 0.01 0.00 0.00
0.00 0.00 0.00 0.00 0.00 0.00 0.00 0.00 0.00 0.00 0.00 0.00 0.00 0.01 0.01 0.00 0.00 0.00 0.00 0.00 0.00 0.00 0.00 0.00 0.00 0.00 0.00 0.00 0.00 0.00 0.00 0.01 0.05 0.10 0.12 0.08 0.05 0.03 0.02 0.01 0.01 0.00 0.00
0.00 0.00 0.00 0.00 0.00 0.00 0.00 0.00 0.00 0.00 0.00 0.00 0.00 0.00 0.00 0.00 0.00 0.00 0.00 0.00 0.00 0.00 0.00 0.00 0.00 0.00 0.00 0.00 0.00 0.00 0.00 0.01 0.03 0.05 0.09 0.10 0.05 0.03 0.01 0.01 0.00 0.00 0.00
0.00 0.00 0.00 0.00 0.00 0.00 0.00 0.00 0.00 0.00 0.00 0.00 0.00 0.00 0.00 0.00 0.00 0.00 0.00 0.00 0.01 0.00 0.00 0.00 0.00 0.00 0.00 0.00 0.00 0.00 0.00 0.00 0.02 0.03 0.07 0.11 0.06 0.03 0.01 0.01 0.00 0.00 0.00
0.00 0.00 0.00 0.00 0.00 0.00 0.00 0.00 0.00 0.00 0.00 0.00 0.00 0.00 0.00 0.00 0.00 0.00 0.01 0.02 0.02 0.01 0.01 0.01 0.01 0.00 0.00 0.00 0.00 0.00 0.00 0.00 0.01 0.04 0.07 0.05 0.03 0.02 0.01 0.00 0.00 0.00 0.00
0.00 0.00 0.00 0.00 0.00 0.00 0.00 0.00 0.00 0.00 0.00 0.00 0.00 0.00 0.00 0.00 0.01 0.02 0.03 0.04 0.03 0.02 0.01 0.01 0.01 0.01 0.01 0.00 0.01 0.01 0.02 0.01 0.01 0.04 0.07 0.04 0.03 0.02 0.01 0.00 0.00 0.00 0.00
0.01 0.00 0.00 0.00 0.00 0.00 0.00 0.00 0.00 0.00 0.00 0.00 0.00 0.00 0.00 0.01 0.02 0.03 0.08 0.08 0.06 0.05 0.02 0.02 0.03 0.03 0.02 0.02 0.01 0.01 0.01 0.01 0.01 0.01 0.02 0.02 0.03 0.02 0.01 0.01 0.00 0.00 0.00
0.01 0.00 0.00 0.00 0.00 0.00 0.00 0.00 0.00 0.00 0.00 0.00 0.00 0.00 0.01 0.01 0.02 0.03 0.06 0.11 0.09 0.09 0.06 0.07 0.08 0.08 0.05 0.03 0.02 0.01 0.01 0.01 0.01 0.01 0.01 0.01 0.01 0.02 0.01 0.00 0.00 0.00 0.01
0.02 0.01 0.00 0.00 0.00 0.00 0.00 0.00 0.00 0.00 0.00 0.00 0.01 0.01 0.01 0.01 0.03 0.09 0.08 0.07 0.05 0.05 0.06 0.12 0.17 0.12 0.07 0.06 0.04 0.03 0.03 0.03 0.02 0.02 0.01 0.01 0.01 0.01 0.01 0.01 0.01 0.01 0.01
0.03 0.02 0.01 0.01 0.00 0.00 0.00 0.00 0.00 0.00 0.00 0.01 0.02 0.02 0.02 0.02 0.02 0.04 0.06 0.04 0.02 0.03 0.04 0.07 0.12 0.17 0.14 0.12 0.08 0.05 0.05 0.05 0.04 0.03 0.02 0.02 0.01 0.01 0.01 0.01 0.01 0.01 0.01
0.04 0.02 0.02 0.01 0.01 0.00 0.00 0.00 0.00 0.00 0.01 0.01 0.01 0.02 0.03 0.03 0.03 0.02 0.03 0.03 0.03 0.03 0.05 0.07 0.09 0.12 0.16 0.12 0.08 0.07 0.06 0.06 0.05 0.04 0.03 0.02 0.01 0.01 0.01 0.01 0.01 0.00 0.00
0.05 0.03 0.03 0.02 0.01 0.01 0.00 0.01 0.00 0.00 0.01 0.02 0.03 0.03 0.04 0.05 0.04 0.03 0.03 0.03 0.03 0.03 0.05 0.06 0.07 0.08 0.09 0.09 0.06 0.05 0.05 0.04 0.04 0.03 0.02 0.02 0.01 0.01 0.01 0.01 0.00 0.00 0.01
0.10 0.05 0.04 0.03 0.03 0.02 0.02 0.01 0.01 0.01 0.02 0.03 0.05 0.06 0.10 0.10 0.06 0.04 0.04 0.03 0.03 0.03 0.03 0.05 0.05 0.06 0.06 0.06 0.05 0.04 0.04 0.03 0.02 0.01 0.01 0.01 0.01 0.01 0.01 0.01 0.01 0.01 0.01
0.11 0.07 0.05 0.04 0.04 0.04 0.04 0.03 0.03 0.04 0.05 0.08 0.11 0.14 0.18 0.14 0.08 0.05 0.05 0.04 0.03 0.03 0.03 0.04 0.04 0.04 0.03 0.03 0.03 0.03 0.02 0.01 0.01 0.01 0.01 0.00 0.00 0.00 0.00 0.00 0.00 0.00 0.00
0.14 0.10 0.09 0.06 0.06 0.08 0.11 0.10 0.10 0.12 0.14 0.17 0.21 0.24 0.21 0.13 0.09 0.07 0.05 0.03 0.02 0.02 0.02 0.03 0.03 0.02 0.02 0.02 0.02 0.02 0.03 0.02 0.01 0.00 0.00 0.00 0.00 0.00 0.00 0.00 0.00 0.00 0.00
0.16 0.14 0.15 0.17 0.18 0.22 0.23 0.20 0.21 0.25 0.26 0.27 0.26 0.24 0.18 0.12 0.10 0.08 0.06 0.04 0.03 0.02 0.02 0.01 0.01 0.01 0.01 0.01 0.01 0.01 0.01 0.01 0.01 0.00 0.00 0.00 0.00 0.00 0.00 0.00 0.00 0.00 0.00
0.14 0.16 0.18 0.26 0.35 0.41 0.39 0.39 0.39 0.39 0.35 0.30 0.25 0.21 0.18 0.15 0.12 0.09 0.07 0.04 0.02 0.01 0.01 0.01 0.01 0.01 0.01 0.01 0.01 0.01 0.01 0.01 0.00 0.00 0.00 0.00 0.00 0.00 0.00 0.00 0.00 0.00 0.00
0.09 0.14 0.19 0.26 0.31 0.35 0.42 0.49 0.49 0.42 0.35 0.29 0.24 0.20 0.18 0.15 0.09 0.06 0.04 0.02 0.01 0.00 0.00 0.01 0.01 0.02 0.02 0.01 0.01 0.01 0.01 0.00 0.00 0.00 0.00 0.00 0.00 0.00 0.00 0.00 0.00 0.00 0.00
0.08 0.12 0.17 0.21 0.23 0.30 0.34 0.36 0.32 0.29 0.26 0.25 0.23 0.20 0.17 0.11 0.07 0.04 0.02 0.01 0.01 0.01 0.01 0.01 0.01 0.01 0.01 0.01 0.01 0.01 0.00 0.00 0.00 0.00 0.00 0.00 0.00 0.00 0.00 0.00 0.00 0.00 0.00
MSLP
1013.35 1012.98 1012.75 1012.74 1012.93 1013.29 1013.73 1014.16 1014.52 1014.76 1014.91 1014.99 1015.08 1015.22 1015.44 1015.74 1016.10 1016.47 1016.80 1017.08 1017.28 1017.44 1017.57 1017.70 1017.86 1018.04 1018.23 1018.41 1018.54 1018.62 1018.65 1018.65 1018.65 1018.66 1018.72 1018.82 1018.94 1019.06 1019.16 1019.23 1019.26 1019.26 1019.27
1013.01 1012.73 1012.59 1012.65 1012.91 1013.32 1013.79 1014.25 1014.62 1014.90 1015.07 1015.20 1015.34 1015.54 1015.81 1016.15 1016.54 1016.91 1017.23 1017.47 1017.65 1017.77 1017.87 1017.98 1018.12 1018.29 1018.46 1018.62 1018.74 1018.80 1018.82 1018.81 1018.80 1018.83 1018.90 1019.02 1019.15 1019.29 1019.41 1019.48 1019.52 1019.53 1019.54
1012.55 1012.36 1012.31 1012.46 1012.79 1013.26 1013.79 1014.28 1014.69 1015.00 1015.21 1015.38 1015.57 1015.81 1016.11 1016.48 1016.86 1017.22 1017.52 1017.74 1017.87 1017.96 1018.04 1018.12 1018.25 1018.40 1018.56 1018.70 1018.81 1018.86 1018.88 1018.88 1018.89 1018.94 1019.04 1019.18 1019.34 1019.50 1019.63 1019.72 1019.77 1019.78 1019.80
1012.09 1011.98 1012.02 1012.25 1012.67 1013.20 1013.78 1014.31 1014.75 1015.08 1015.32 1015.52 1015.74 1016.00 1016.32 1016.68 1017.06 1017.40 1017.66 1017.84 1017.95 1018.01 1018.06 1018.14 1018.25 1018.39 1018.54 1018.68 1018.79 1018.85 1018.89 1018.91 1018.95 1019.04 1019.17 1019.34 1019.53 1019.71 1019.86 1019.95 1020.01 1020.03 1020.06
1011.74 1011.71 1011.83 1012.14 1012.62 1013.20 1013.80 1014.35 1014.81 1015.15 1015.40 1015.62 1015.84 1016.10 1016.42 1016.77 1017.12 1017.43 1017.66 1017.81 1017.90 1017.94 1017.99 1018.06 1018.17 1018.31 1018.47 1018.61 1018.73 1018.82 1018.88 1018.95 1019.03 1019.16 1019.33 1019.53 1019.74 1019.93 1020.08 1020.18 1020.23 1020.27 1020.30
1011.60 1011.64 1011.83 1012.19 1012.71 1013.30 1013.90 1014.44 1014.88 1015.21 1015.45 1015.66 1015.88 1016.14 1016.44 1016.77 1017.09 1017.36 1017.56 1017.70 1017.77 1017.81 1017.86 1017.94 1018.06 1018.21 1018.38 1018.54 1018.68 1018.79 1018.90 1019.00 1019.13 1019.29 1019.50 1019.72 1019.94 1020.13 1020.27 1020.36 1020.41 1020.45 1020.49
1011.69 1011.79 1012.02 1012.42 1012.94 1013.51 1014.08 1014.57 1014.97 1015.26 1015.48 1015.68 1015.89 1016.13 1016.42 1016.72 1017.01 1017.26 1017.44 1017.56 1017.62 1017.67 1017.73 1017.82 1017.95 1018.12 1018.30 1018.48 1018.64 1018.78 1018.91 1019.06 1019.22 1019.42 1019.64 1019.87 1020.09 1020.26 1020.39 1020.46 1020.50 1020.54 1020.58
1011.95 1012.10 1012.38 1012.78 1013.27 1013.79 1014.29 1014.71 1015.05 1015.30 1015.49 1015.67 1015.88 1016.12 1016.39 1016.68 1016.95 1017.17 1017.34 1017.44 1017.51 1017.56 1017.63 1017.73 1017.88 1018.05 1018.24 1018.42 1018.59 1018.75 1018.91 1019.08 1019.26 1019.48 1019.71 1019.94 1020.14 1020.30 1020.40 1020.46 1020.48 1020.51 1020.56
1012.28 1012.48 1012.78 1013.17 1013.61 1014.06 1014.48 1014.82 1015.10 1015.30 1015.48 1015.66 1015.87 1016.12 1016.39 1016.67 1016.93 1017.14 1017.28 1017.38 1017.44 1017.50 1017.57 1017.68 1017.82 1017.99 1018.17 1018.35 1018.52 1018.68 1018.84 1019.02 1019.22 1019.44 1019.66 1019.88 1020.07 1020.21 1020.30 1020.33 1020.35 1020.37 1020.43
1012.56 1012.81 1013.12 1013.49 1013.87 1014.25 1014.58 1014.85 1015.07 1015.25 1015.43 1015.63 1015.86 1016.13 1016.42 1016.70 1016.94 1017.14 1017.27 1017.35 1017.40 1017.46 1017.53 1017.63 1017.77 1017.93 1018.10 1018.26 1018.41 1018.56 1018.71 1018.88 1019.07 1019.28 1019.50 1019.71 1019.89 1020.01 1020.09 1020.13 1020.15 1020.18 1020.25
1012.69 1012.98 1013.31 1013.65 1013.98 1014.28 1014.55 1014.77 1014.95 1015.13 1015.33 1015.56 1015.83 1016.14 1016.44 1016.73 1016.97 1017.14 1017.26 1017.33 1017.37 1017.42 1017.49 1017.59 1017.72 1017.86 1018.00 1018.14 1018.27 1018.39 1018.52 1018.67 1018.85 1019.05 1019.26 1019.46 1019.64 1019.77 1019.85 1019.90 1019.94 1019.99 1020.08
1012.63 1012.97 1013.30 1013.61 1013.90 1014.15 1014.36 1014.55 1014.73 1014.93 1015.17 1015.45 1015.76 1016.10 1016.43 1016.72 1016.95 1017.11 1017.21 1017.28 1017.32 1017.37 1017.44 1017.54 1017.66 1017.79 1017.92 1018.03 1018.13 1018.22 1018.33 1018.46 1018.62 1018.81 1019.02 1019.22 1019.40 1019.55 1019.66 1019.74 1019.81 1019.89 1020.00
1012.42 1012.78 1013.11 1013.40 1013.65 1013.86 1014.04 1014.22 1014.42 1014.65 1014.94 1015.27 1015.63 1015.99 1016.34 1016.62 1016.85 1017.00 1017.10 1017.17 1017.23 1017.30 1017.39 1017.51 1017.64 1017.77 1017.88 1017.98 1018.05 1018.12 1018.21 1018.31 1018.46 1018.64 1018.85 1019.06 1019.26 1019.44 1019.59 1019.71 1019.82 1019.93 1020.06
1012.10 1012.47 1012.79 1013.06 1013.28 1013.46 1013.64 1013.83 1014.06 1014.33 1014.66 1015.03 1015.43 1015.81 1016.15 1016.43 1016.65 1016.80 1016.91 1017.00 1017.10 1017.21 1017.35 1017.50 1017.66 1017.81 1017.93 1018.02 1018.09 1018.14 1018.21 1018.30 1018.44 1018.62 1018.82 1019.05 1019.28 1019.48 1019.67 1019.82 1019.97 1020.11 1020.26
1011.77 1012.14 1012.44 1012.67 1012.87 1013.04 1013.22 1013.43 1013.69 1014.00 1014.37 1014.77 1015.17 1015.55 1015.88 1016.15 1016.36 1016.53 1016.67 1016.80 1016.96 1017.14 1017.34 1017.56 1017.76 1017.95 1018.09 1018.19 1018.26 1018.31 1018.37 1018.45 1018.58 1018.75 1018.96 1019.20 1019.44 1019.67 1019.88 1020.07 1020.25 1020.41 1020.56
1011.50 1011.84 1012.11 1012.31 1012.48 1012.65 1012.84 1013.07 1013.37 1013.71 1014.10 1014.51 1014.90 1015.26 1015.57 1015.82 1016.04 1016.22 1016.41 1016.61 1016.85 1017.11 1017.40 1017.68 1017.95 1018.18 1018.35 1018.47 1018.54 1018.60 1018.65 1018.73 1018.85 1019.02 1019.23 1019.46 1019.71 1019.95 1020.18 1020.38 1020.57 1020.73 1020.87
1011.32 1011.62 1011.84 1012.01 1012.16 1012.32 1012.53 1012.80 1013.13 1013.50 1013.90 1014.30 1014.67 1015.01 1015.29 1015.53 1015.75 1015.97 1016.21 1016.48 1016.80 1017.16 1017.52 1017.88 1018.21 1018.47 1018.67 1018.81 1018.89 1018.95 1019.01 1019.09 1019.20 1019.35 1019.55 1019.77 1020.01 1020.24 1020.46 1020.66 1020.84 1020.99 1021.11
1011.21 1011.45 1011.62 1011.76 1011.89 1012.07 1012.31 1012.62 1012.98 1013.39 1013.80 1014.19 1014.55 1014.85 1015.11 1015.34 1015.57 1015.82 1016.12 1016.47 1016.86 1017.29 1017.73 1018.14 1018.50 1018.79 1019.01 1019.15 1019.24 1019.31 1019.36 1019.43 1019.54 1019.68 1019.85 1020.05 1020.26 1020.47 1020.66 1020.84 1020.99 1021.12 1021.22
1011.14 1011.31 1011.43 1011.53 1011.66 1011.86 1012.15 1012.51 1012.94 1013.38 1013.82 1014.21 1014.55 1014.84 1015.08 1015.31 1015.56 1015.84 1016.19 1016.59 1017.04 1017.52 1017.99 1018.42 1018.80 1019.09 1019.30 1019.45 1019.54 1019.60 1019.65 1019.72 1019.81 1019.93 1020.08 1020.24 1020.42 1020.59 1020.74 1020.89 1021.01 1021.10 1021.18
1011.05 1011.15 1011.21 1011.29 1011.43 1011.68 1012.03 1012.47 1012.96 1013.47 1013.95 1014.37 1014.71 1015.00 1015.25 1015.48 1015.74 1016.05 1016.43 1016.86 1017.34 1017.82 1018.30 1018.72 1019.07 1019.34 1019.54 1019.67 1019.75 1019.81 1019.86 1019.93 1020.01 1020.11 1020.23 1020.35 1020.48 1020.60 1020.72 1020.82 1020.91 1020.98 1021.04
1010.93 1010.95 1010.95 1011.02 1011.19 1011.49 1011.92 1012.46 1013.04 1013.63 1014.18 1014.64 1015.02 1015.33 1015.59 1015.85 1016.12 1016.45 1016.83 1017.26 1017.73 1018.19 1018.62 1019.00 1019.31 1019.54 1019.71 1019.82 1019.90 1019.96 1020.02 1020.09 1020.16 1020.25 1020.34 1020.42 1020.51 1020.58 1020.66 1020.72 1020.78 1020.83 1020.87
1010.78 1010.72 1010.68 1010.74 1010.95 1011.32 1011.84 1012.48 1013.17 1013.86 1014.49 1015.02 1015.45 1015.80 1016.09 1016.36 1016.65 1016.98 1017.35 1017.76 1018.18 1018.59 1018.96 1019.28 1019.53 1019.71 1019.85 1019.95 1020.03 1020.10 1020.18 1020.26 1020.34 1020.41 1020.48 1020.53 1020.58 1020.62 1020.65 1020.68 1020.71 1020.75 1020.78
1010.66 1010.52 1010.45 1010.51 1010.76 1011.20 1011.82 1012.56 1013.36 1014.15 1014.86 1015.47 1015.96 1016.35 1016.68 1016.97 1017.27 1017.58 1017.93 1018.30 1018.66 1019.01 1019.31 1019.56 1019.75 1019.90 1020.01 1020.11 1020.21 1020.31 1020.42 1020.52 1020.61 1020.69 1020.74 1020.77 1020.78 1020.78 1020.78 1020.78 1020.80 1020.82 1020.84
1010.65 1010.45 1010.34 1010.42 1010.70 1011.21 1011.91 1012.74 1013.63 1014.50 1015.28 1015.96 1016.50 1016.94 1017.30 1017.61 1017.90 1018.21 1018.52 1018.84 1019.14 1019.42 1019.66 1019.85 1020.00 1020.13 1020.24 1020.36 1020.50 1020.64 1020.78 1020.92 1021.03 1021.11 1021.16 1021.17 1021.16 1021.13 1021.10 1021.08 1021.07 1021.06 1021.07
1010.82 1010.58 1010.46 1010.54 1010.86 1011.42 1012.17 1013.06 1014.00 1014.92 1015.76 1016.47 1017.05 1017.52 1017.90 1018.22 1018.51 1018.80 1019.08 1019.36 1019.61 1019.83 1020.02 1020.18 1020.31 1020.44 1020.58 1020.73 1020.90 1021.09 1021.28 1021.46 1021.59 1021.69 1021.73 1021.74 1021.70 1021.66 1021.60 1021.55 1021.50 1021.47 1021.44
1011.23 1010.97 1010.85 1010.95 1011.30 1011.88 1012.65 1013.56 1014.51 1015.44 1016.29 1017.01 1017.60 1018.07 1018.46 1018.78 1019.07 1019.34 1019.60 1019.85 1020.06 1020.26 1020.42 1020.56 1020.70 1020.84 1021.00 1021.20 1021.42 1021.65 1021.88 1022.09 1022.25 1022.35 1022.40 1022.40 1022.36 1022.29 1022.21 1022.12 1022.04 1021.96 1021.87
Thickness
5794 5796 5795 5794 5793 5791 5790 5788 5786 5784 5782 5780 5778 5777 5775 5773 5770 5768 5766 5764 5762 5759 5757 5754 5752 5750 5749 5747 5746 5745 5744 5743 5742 5741 5741 5740 5740 5739 5738 5737 5736 5735 5735
5800 5796 5794 5792 5790 5789 5787 5785 5783 5781 5779 5777 5775 5774 5772 5769 5767 5765 5763 5760 5758 5755 5753 5751 5749 5747 5745 5744 5742 5741 5740 5739 5739 5738 5738 5738 5737 5736 5735 5733 5732 5731 5730
5799 5795 5792 5791 5789 5787 5785 5783 5780 5778 5776 5774 5772 5770 5768 5766 5764 5762 5759 5757 5754 5751 5749 5747 5745 5743 5742 5741 5739 5738 5737 5736 5735 5735 5735 5734 5733 5732 5731 5729 5728 5727 5726
5798 5793 5791 5789 5787 5785 5783 5780 5778 5775 5773 5770 5769 5767 5765 5763 5761 5758 5756 5753 5750 5748 5746 5744 5742 5740 5739 5738 5736 5735 5735 5734 5733 5732 5732 5730 5729 5727 5726 5725 5723 5722 5721
5795 5792 5789 5787 5785 5783 5781 5778 5775 5773 5770 5768 5766 5764 5762 5760 5757 5755 5753 5750 5747 5745 5743 5741 5740 5738 5737 5735 5734 5733 5732 5732 5731 5730 5729 5727 5725 5723 5722 5721 5720 5718 5717
5793 5790 5787 5786 5784 5781 5779 5776 5774 5771 5768 5766 5764 5761 5759 5757 5755 5753 5750 5748 5745 5743 5741 5740 5738 5737 5736 5734 5732 5731 5731 5731 5730 5728 5727 5725 5723 5721 5719 5718 5717 5715 5714
5791 5788 5786 5784 5782 5780 5778 5775 5772 5770 5767 5765 5762 5759 5757 5755 5753 5751 5749 5746 5744 5742 5741 5739 5737 5736 5734 5732 5730 5729 5729 5730 5728 5727 5725 5723 5720 5718 5716 5715 5714 5713 5712
5791 5787 5785 5783 5781 5779 5777 5774 5772 5769 5767 5764 5761 5759 5756 5754 5752 5750 5748 5745 5743 5742 5740 5738 5736 5734 5733 5730 5727 5726 5727 5728 5726 5725 5723 5721 5718 5716 5714 5712 5712 5711 5709
5791 5787 5784 5782 5780 5778 5776 5774 5771 5769 5766 5764 5761 5759 5756 5754 5752 5749 5747 5745 5742 5740 5738 5737 5735 5733 5731 5728 5725 5724 5725 5725 5724 5723 5721 5719 5717 5715 5713 5711 5710 5708 5707
5788 5786 5784 5781 5779 5777 5775 5773 5771 5769 5766 5764 5761 5759 5756 5754 5752 5749 5747 5744 5742 5740 5738 5736 5734 5732 5729 5726 5723 5722 5723 5723 5721 5720 5719 5717 5715 5712 5710 5709 5707 5706 5704
5785 5785 5784 5781 5779 5777 5775 5772 5770 5768 5766 5764 5761 5759 5756 5754 5752 5749 5747 5744 5742 5739 5737 5735 5733 5730 5728 5724 5722 5722 5722 5721 5719 5717 5716 5714 5712 5710 5708 5706 5705 5703 5701
5783 5784 5784 5782 5779 5777 5775 5772 5770 5768 5765 5763 5761 5759 5756 5754 5751 5749 5746 5744 5741 5738 5736 5733 5731 5728 5726 5723 5721 5720 5720 5718 5716 5714 5712 5711 5709 5707 5706 5704 5702 5700 5699
5789 5787 5785 5783 5780 5778 5776 5772 5769 5768 5765 5763 5761 5759 5756 5753 5750 5747 5745 5742 5739 5737 5734 5731 5728 5726 5723 5721 5719 5719 5717 5715 5713 5711 5709 5707 5705 5704 5702 5701 5699 5698 5696
5789 5789 5787 5785 5782 5779 5777 5774 5771 5768 5766 5764 5761 5759 5755 5752 5749 5747 5744 5741 5738 5735 5732 5728 5725 5723 5720 5718 5718 5717 5715 5712 5710 5707 5705 5703 5701 5699 5697 5695 5694 5693 5691
5789 5790 5789 5788 5784 5782 5778 5775 5772 5770 5767 5765 5762 5759 5756 5753 5750 5747 5744 5741 5737 5732 5728 5725 5721 5718 5715 5714 5713 5712 5710 5708 5705 5703 5700 5697 5695 5693 5691 5689 5688 5686 5685
5791 5790 5792 5790 5787 5784 5780 5777 5774 5771 5767 5764 5761 5759 5756 5753 5750 5747 5742 5737 5733 5729 5725 5721 5717 5713 5710 5707 5706 5705 5703 5701 5699 5696 5694 5691 5689 5687 5685 5683 5681 5679 5677
5796 5793 5792 5792 5789 5785 5782 5778 5775 5772 5767 5763 5761 5758 5754 5751 5748 5744 5739 5734 5730 5726 5722 5718 5713 5708 5704 5701 5698 5697 5695 5693 5691 5688 5686 5684 5682 5679 5677 5675 5673 5670 5669
5798 5795 5793 5794 5790 5786 5783 5779 5776 5772 5767 5763 5759 5755 5752 5749 5745 5740 5735 5730 5726 5722 5717 5713 5708 5702 5697 5693 5689 5688 5686 5683 5682 5680 5677 5675 5673 5671 5669 5666 5664 5662 5660
5798 5795 5792 5793 5788 5784 5781 5777 5773 5769 5765 5761 5756 5751 5747 5743 5739 5735 5730 5725 5721 5716 5711 5707 5702 5697 5691 5687 5684 5681 5679 5676 5674 5672 5669 5667 5665 5663 5661 5659 5656 5654 5651
5797 5793 5788 5788 5785 5781 5776 5771 5765 5761 5758 5754 5750 5745 5740 5736 5732 5727 5723 5718 5714 5709 5704 5700 5695 5691 5686 5682 5680 5675 5673 5670 5668 5665 5662 5659 5657 5655 5653 5651 5648 5645 5642
5792 5786 5784 5784 5782 5776 5770 5763 5757 5750 5747 5743 5740 5736 5731 5727 5723 5719 5714 5710 5707 5702 5698 5694 5689 5684 5679 5677 5673 5668 5666 5664 5661 5658 5656 5652 5649 5647 5645 5642 5640 5637 5634
5788 5785 5780 5781 5779 5774 5767 5761 5753 5744 5737 5732 5728 5724 5720 5717 5714 5711 5706 5702 5698 5694 5690 5687 5683 5677 5672 5669 5666 5660 5655 5654 5653 5652 5649 5645 5642 5639 5636 5633 5631 5628 5625
5784 5782 5780 5777 5773 5768 5761 5752 5743 5734 5726 5720 5716 5713 5708 5706 5703 5700 5697 5693 5689 5686 5682 5678 5676 5672 5665 5662 5659 5655 5649 5645 5642 5641 5639 5636 5634 5630 5627 5624 5621 5618 5615
5781 5779 5776 5770 5765 5760 5753 5745 5735 5728 5719 5712 5707 5702 5698 5695 5692 5689 5686 5683 5679 5676 5672 5669 5667 5663 5659 5654 5651 5648 5644 5640 5634 5629 5627 5625 5623 5619 5615 5612 5609 5606 5604
5774 5773 5769 5764 5756 5750 5744 5739 5731 5722 5714 5706 5699 5693 5687 5683 5680 5678 5675 5673 5669 5665 5662 5659 5656 5653 5650 5645 5641 5637 5634 5629 5624 5619 5614 5611 5609 5606 5602 5598 5595 5592 5589
5762 5761 5757 5751 5743 5738 5733 5728 5722 5713 5705 5696 5688 5681 5676 5672 5669 5666 5663 5661 5657 5654 5651 5647 5644 5641 5637 5633 5629 5625 5621 5616 5611 5607 5601 5596 5592 5590 5588 5583 5579 5575 5572